Skip Page Navigation
NASA JPL Caltech
NASA Logo - Jet Propulsion Laboratory + View the NASA Portal
+ Center for Near-Earth Object Studies
JPL Home Earth Solar System Stars & Galaxies Technology
JPL Solar System Dynamics
BODIES ORBITS EPHEMERIDES TOOLS PHYSICAL DATA DISCOVERY FAQ SITE MAP
IMPORTANT: The SSD Announcement email list is now available. Major changes are coming in the near future, including possible hostname and/or URL changes. To be notified of such changes, subscribe to this email list.

Please visit this page for more details.


JPL Small-Body Database Browser
Search: [ help ]  
351245 (2004 RT51)
Classification: Main-belt Asteroid          SPK-ID: 2351245
Ephemeris | Orbit Diagram | Orbital Elements | Mission Design | Physical Parameters | Discovery Circumstances | Close-Approach Data ]

[ show orbit diagram ]
Orbital Elements at Epoch 2459000.5 (2020-May-31.0) TDB
Reference: JPL 9 (heliocentric ecliptic J2000)
 Element Value Uncertainty (1-sigma)   Units 
e .1964038238573831 4.6156e-08  
a 2.402669557496943 1.2135e-08 au
q 1.930776068938817 1.0709e-07 au
i 2.482743896602701 4.4623e-06 deg
node 61.76694531998411 0.00011571 deg
peri 272.4213445262225 0.00011757 deg
M 90.51477249337113 1.5657e-05 deg
tp 2458658.476096749400
(2019-Jun-23.97609675)
5.8699e-05 TDB
period 1360.315026801105
3.72
1.0305e-05
2.821e-08
d
yr
n .2646445807825634 2.0049e-09 deg/d
Q 2.874563046055069 1.4518e-08 au
  Orbit Determination Parameters
   # obs. used (total)      237  
   data-arc span      5611 days (15.36 yr)  
   first obs. used      2004-09-08  
   last obs. used      2020-01-19  
   planetary ephem.      DE431  
   SB-pert. ephem.      SB431-N16  
   condition code      0  
   norm. resid. RMS      .60746  
   source      ORB  
   producer      Otto Matic  
   solution date      2020-Feb-25 23:53:53  

Additional Information
 Earth MOID = .922732 au 
 Jupiter MOID = 2.49737 au 
 T_jup = 3.497 
[ show covariance matrix ]

Ephemeris | Orbit Diagram | Orbital Elements | Mission Design | Physical Parameters | Discovery Circumstances | Close-Approach Data ]

Physical Parameter Table
Parameter Symbol Value Units Sigma Reference Notes
absolute magnitude H 17.5   n/a MPO440578  

351245 (2004 RT51)          Discovered 2004-Sep-08 by LINEAR at Socorro
Reference: 20130127/Numbers.arcLast Updated: 2013-01-31

[ show close-approach data ]
Ephemeris | Orbit Diagram | Orbital Elements | Mission Design | Physical Parameters | Discovery Circumstances | Close-Approach Data ]
ABOUT SSD CREDITS/AWARDS PRIVACY/COPYRIGHT GLOSSARY LINKS
FirstGov 2020-May-29 21:12 UT
(server date/time)  
NASA Home Page
Site Manager:   Ryan S. Park
Webmaster  Alan B. Chamberlin